STARLINK-1379 (45549 NORAD) Tracking and Keplerian Element Data

This shows tracking and keplerian element data for the satellite.

Feedback or suggestion? Click here.




ElementValue
Catalog45549
NameSTARLINK-1379
Epoch Orbit573
Epoch Day145.83334491
Epoch Year2020
RAAN242.7495
Inclination53.0021
Eccentricity0.0002184
Argument of Perigee132.3517
Mean Anonmoly1.4761
Mean Motion15.41595546
Decay Rate0.02407351
L11 45549U 20025U 20145.83334491 .02407351 00000-0 50013-1 0 9995
L22 45549 53.0021 242.7495 0002184 132.3517 1.4761 15.41595546 5739

Live tracking and technical data element details for STARLINK-1379 (NORAD 45549). STARLINK-1379 can be tracked NOW for your location showing map with azimuth and elevation plus other details from your city location.

Track the satellite on the map from your city or location and see movement details for azimuth, elevation, latitude, longitude, range, height, and movement on the map or in text.







IsCatalogInMostPopularTable: catalog: 45549, numindb: 5
Update: records affected: 1



GetName: 45549 STARLINK-1379

Hit Count: updated at: Tue, 26 May 2020 03:17:35 GMT